Home   Weather   Charlotte Amalie   Past weeks

Flag for US Virgin Islands Past Weather in Charlotte Amalie, US Virgin Islands — Yesterday and Last 2 Weeks

Now
80 °F

Passing clouds.


Feels Like: 84 °F
Forecast: 74 / 83 °F
Wind: 15 mph from East

Location: Cyril E. King International Airport

Current Time: Feb 27, 2017 at 9:50:36 am

Latest Report: Feb 27, 2017 at 8:53 am


Visibility: 10 mi

Pressure: 30.09 "Hg

Humidity: 74%

Dew Point: 71 °F

Location of Charlotte AmalieLocation

Past Weather in Charlotte Amalie — Graph

°F

Charlotte Amalie Temperature Yesterday

Maximum temperature yesterday: 83 °F (at 2:53 pm)
Minimum temperature yesterday: 73 °F (at 4:53 am)
Average temperature yesterday: 78 °F

High & Low Weather Summary for the Past Weeks

 TemperatureHumidityPressure
High85 °F (Feb 14, 1:53 pm)100% (Feb 21, 5:47 am)30.11 "Hg (Feb 21, 5:47 am)
Low68 °F (Feb 15, 6:53 am)48% (Feb 14, 4:53 pm)29.81 "Hg (Feb 22, 4:53 am)
Average77 °F76%29.98 "Hg
* Reported Feb 12 7:53 am — Feb 27 7:53 am, Charlotte Amalie, Weather by CustomWeather, © 2017

Note: Actual official high and low records may vary slightly from our data, if they occured in-between our weather recording intervals... More about our weather records

Advertising

Charlotte Amalie Weather History for the Previous 24 Hours

Scroll right to see more
 ConditionsComfort  
Time TempWeatherWind HumidityBarometerVisibility
7:53 am
Mon, Feb 27
78 °FScattered clouds.7 mph84%30.08 "Hg10 mi
6:53 am74 °FOvercast.6 mph91%30.06 "Hg10 mi
5:53 am74 °FLight rain. Overcast.13 mph88%30.04 "Hg10 mi
4:53 am73 °FPassing clouds.8 mph90%30.02 "Hg10 mi
3:53 am74 °FLight rain. Fog.6 mph94%30.02 "Hg6 mi
2:53 am76 °FPassing clouds.10 mph91%30.02 "Hg10 mi
1:53 am75 °FPassing clouds.8 mph90%30.03 "Hg10 mi
12:53 am75 °FMostly cloudy.12 mph94%30.07 "Hg10 mi
11:53 pm
Sun, Feb 26
78 °FPassing clouds.10 mph82%30.07 "Hg10 mi
10:53 pm78 °FPassing clouds.10 mph79%30.07 "Hg10 mi
9:53 pm78 °FPassing clouds.13 mph74%30.08 "Hg10 mi
8:53 pm77 °FClear.9 mph77%30.07 "Hg10 mi
7:53 pm77 °FClear.10 mph77%30.05 "Hg10 mi
6:53 pm78 °FPassing clouds.12 mph76%30.03 "Hg10 mi
6:37 pm78 °FPassing clouds.9 mph76%30.03 "Hg10 mi
5:53 pm80 °FSunny.12 mph69%30.02 "Hg10 mi
4:53 pm83 °FPassing clouds.13 mph61%30.01 "Hg10 mi
3:53 pm82 °FPassing clouds.12 mph63%30.00 "Hg10 mi
2:53 pm83 °FBroken clouds.12 mph68%30.00 "Hg10 mi
1:53 pm81 °FPartly sunny.12 mph74%30.01 "Hg10 mi
12:46 pm80 °FScattered clouds.7 mph74%30.05 "Hg10 mi
12:28 pm80 °FLight rain. Mostly cloudy.6 mph76%30.05 "Hg10 mi
11:53 am81 °FMostly cloudy.12 mph72%30.06 "Hg10 mi
10:53 am82 °FScattered clouds.13 mph72%30.07 "Hg10 mi
9:53 am82 °FPassing clouds.9 mph70%30.08 "Hg10 mi
Weather by CustomWeather, © 2017

See weather overviewHow to use our weather pages